Location: Bieg
(49.3499°N, 10.3835°E)
Time: 10:16:04
(UTC+00:00)

Resurs 1-4 Rocket - Pass Details

Date: 23 May 2024
Orbit: 798 x 813 km, 98.7° (Epoch: 20 June)

Event Time Altitude Azimuth Distance (km) Brightness Sun altitude
Rises 02:05:00 0° 10° (N) 3,320 6.4 -10.5°
Reaches altitude 10° 02:07:24 10° 5° (N) 2,384 5.4 -10.3°
Maximum altitude 02:12:25 47° 293° (WNW) 1,054 2.6 -9.7°
Enters shadow 02:17:06 12° 222° (SW) 2,254 3.7 -9.2°
